Showing default

AISTECHSAT-2, 43768

Orbit data source: Space-Track

AISTECHSAT-2, 43768 is a payload satellite owned by AISTech (ES) in SSO that was launched on Mon, 03 Dec 2018 UTC via an FALCON 9 launch vehicle from the Air Force Western Test Range (AFWTR). Payload-class satellites include a variety of spacecraft equipped with specific instruments for various scientific and technological missions. These include communications satellites like Starlink; space stations such as the ISS; scientific satellites like the Hubble; Earth observation satellites from companies like Planet Labs, Umbra, and HawkEye 360; GPS; miniature CubeSats for education and research; and military/defense satellites.

Loading next visibility...
Identifier
43768, 2018-099L
Orbit
SSO
Country
Flag of ESES / SPN
Related business
Manufacturer
AISTech
Mission
Operational Commercial Communications
Bus & Motor
CUBESAT 6U, Unknown motor
Mass
10 kg wet, 10 kg dry
Launch date (UTC)
2018-12-03 (8 years ago)
Launch vehicle
FALCON 9
Launch site
Air Force Western Test Range (AFWTR)
Object type
Payload
Rocket body
Debris
Shape & HBR
Box + 3 Pan, 0.3 m
Radar Cross Section
0.054 m², Medium (>0.1 m² and < 1m²)

Expand to show TLE details & history
Last TLE update: 9 hours ago

TLE from 9 hours ago
0 AISTECHSAT-2
1 43768U 18099L   26235.88689102  .00004828  00000-0  25435-3 0  9999
2 43768  97.4249 282.4466 0006172  73.0700 287.1209 15.16044243422535
Epoch: 2026-08-23T21:17Z
TLE epoch observation values (Epoch: 2026-08-23T21:17:07.384Z)
Latitude
-0.00001°
Longitude
-9.01067°
Altitude
519.644 km
Speed
7.604 km/s
True Right ascension
18h 49m 47s
True Declination
0° 00' 00"
Sunlit
Object was in full shadow at epoch
Visualization orbit readout
Latitude
Unknown
Longitude
Unknown
Altitude
Unknown
Speed
Unknown
Apparent Right ascension
Unknown
Apparent Declination
Unknown
Sunlit
N/A
Visualization observer readout
Local Sidereal Time
21:35:01
Azimuth
Unknown
Elevation
Unknown
Doppler factor
Unknown
Orbital elements
Apogee altitude
519.036 km
Perigee altitude
510.528 km
Semi-major axis
6,892.919 km
Eccentricity
0.00062
Inclination
97.4249°
RAAN
282.4466°
Arg. of periapsis
73.07°
True anomaly
287.05329°
Mean anomaly
287.1209°
Eccentric anomaly
287.0871°
Mean motion
3.79261 °/min
Orbital period
94.92 mins
BSTAR
0.00025435
Loading maneuver chart data...
Computing Atmospheric mass density...
Loading historical data...
Loading historical data...
Loading historical data...
Loading historical data...
Loading historical data...
Loading historical data...
Loading historical data...

Documentation

Showing up to 5 results
|